Vorticity
4 3 4 3 4 5 4 4 4 8 8 9 7 5 2 4 2 2 3 2 1 4 4 7 5 17 37 10 5 19 26 19 9 8 5 6 -1 4 4 14 14 34 18 14 9 5 14
4 3 5 3 4 6 6 5 3 7 9 8 6 4 2 1 2 5 4 4 1 6 4 6 6 12 36 17 5 24 19 16 15 12 10 9 10 12 19 9 6 18 24 17 25 11 4
4 4 4 3 4 6 5 5 6 3 8 7 5 4 3 5 3 5 6 3 2 6 5 6 6 12 36 16 3 16 15 10 11 8 5 15 16 33 13 18 11 20 19 21 33 30 13
3 4 4 3 4 7 10 7 6 6 4 8 6 3 4 5 4 6 5 2 2 6 6 6 5 9 30 24 7 14 11 13 13 8 28 -11 4 18 28 11 14 3 18 11 16 16 31
0 4 6 4 4 4 6 8 9 7 4 7 7 8 5 3 4 6 5 2 3 6 6 6 4 8 11 36 15 4 9 7 18 10 -4 5 12 19 28 16 16 17 18 16 19 15 25
0 5 6 7 4 7 10 10 10 8 6 4 7 8 8 5 4 5 5 4 5 5 6 6 3 9 10 17 28 16 3 3 6 16 15 9 9 11 1 -2 9 25 17 24 19 15 20
3 7 7 6 5 8 8 8 12 10 7 6 4 8 8 7 4 5 5 5 5 4 4 7 4 6 11 9 30 24 16 8 9 7 11 12 10 10 5 -0 14 21 2 8 10 26 27
5 6 7 5 6 6 7 7 8 13 9 7 5 6 9 7 6 5 4 3 4 -1 3 4 7 5 7 7 13 26 19 17 19 22 13 14 8 10 12 9 8 3 9 10 7 26 6
4 5 7 5 6 5 6 7 9 9 13 9 7 6 6 9 8 8 5 4 4 3 6 3 5 6 3 8 10 18 20 10 6 16 20 17 16 11 10 13 7 10 8 13 6 17 13
3 4 8 5 5 4 4 5 7 9 12 13 9 6 5 7 9 7 6 4 4 4 5 3 4 4 5 6 6 12 22 19 12 12 13 13 19 22 16 11 17 20 13 10 16 3 10
2 4 7 5 4 3 2 3 3 5 7 10 15 10 7 4 4 8 9 7 4 5 5 4 4 2 7 5 5 5 11 18 21 12 7 0 2 8 19 19 16 12 22 22 21 14 15
3 3 6 6 4 3 3 2 2 3 4 5 7 14 11 8 6 5 4 8 8 6 3 4 4 2 5 6 4 5 8 13 14 17 19 12 11 13 15 11 13 4 14 9 9 13 24
3 4 6 7 4 3 2 2 2 3 3 4 5 5 10 12 9 7 5 5 7 9 6 2 4 4 3 6 6 5 5 6 15 9 10 13 12 12 12 10 8 10 13 21 24 9 24
6 7 7 7 5 4 2 1 1 2 3 3 3 4 5 6 9 10 9 7 4 7 9 8 4 3 4 3 5 7 3 5 4 10 13 10 8 7 5 7 7 14 16 12 16 18 23
8 8 8 7 8 4 3 2 2 2 2 2 4 3 4 5 6 6 7 6 5 5 3 5 12 5 4 4 2 6 7 5 4 -1 11 9 9 8 9 7 7 12 1 14 16 5 12
10 7 6 6 7 7 4 3 2 2 2 2 1 3 2 4 4 4 5 5 6 7 6 5 2 7 7 3 5 4 5 8 6 4 5 1 7 9 5 3 3 6 3 3 5 17 12
3 -4 2 6 8 8 5 3 3 2 2 3 0 2 2 3 3 3 2 1 4 4 6 8 7 5 2 9 3 5 5 4 7 9 7 7 10 3 6 8 4 5 5 -0 13 7 18
2 18 6 -0 5 9 8 5 5 3 2 1 4 1 -1 3 4 4 4 3 1 2 3 3 7 8 9 4 12 4 3 5 4 4 8 6 9 8 6 7 9 8 12 12 11 12 4
11 1 -8 11 8 3 4 7 4 3 4 4 3 2 8 -1 -0 2 5 3 0 1 0 -3 7 9 9 9 8 13 4 3 5 5 5 4 5 10 8 6 6 6 6 8 8 9 9
1 6 10 4 -1 4 5 4 5 5 3 2 4 5 3 3 6 6 1 -1 4 7 1 5 6 5 9 8 6 11 12 6 2 4 5 7 5 5 5 6 7 10 10 7 8 7 6
14 10 12 4 2 11 8 4 9 -8 4 5 2 0 2 -0 6 4 5 10 4 -2 -5 0 0 1 -1 14 10 8 14 9 7 1 1 3 6 7 7 7 5 5 5 6 10 11 8
7 17 17 11 9 3 -5 5 4 7 3 4 4 9 3 13 -2 7 3 2 -1 -4 6 -3 3 15 1 6 15 6 8 17 11 8 3 -0 2 3 7 6 11 7 8 6 5 3 3
2 3 5 16 20 12 6 9 0 1 -5 6 -2 9 -4 -7 2 5 7 7 7 5 6 5 -1 -9 23 8 12 11 3 11 16 12 8 5 1 2 4 4 7 10 9 5 7 8 5
7 4 5 4 7 17 21 10 8 8 16 1 8 8 -1 2 10 -10 -2 4 7 2 2 -3 1 -2 13 18 9 11 7 9 21 10 13 8 6 2 3 3 4 7 3 6 7 3 5
15 13 9 8 7 3 8 21 22 8 6 9 -0 -3 5 8 -3 1 14 -6 -5 -5 -4 1 9 1 11 10 15 14 8 10 15 19 6 14 9 7 5 3 3 2 5 1 9 5 6
17 14 14 17 9 10 10 11 14 14 20 13 3 8 9 8 13 12 -4 5 9 15 6 6 3 13 5 -0 12 17 9 12 13 18 16 6 11 10 5 5 3 3 2 2 1 6 7
14 15 14 15 15 9 7 2 9 13 13 13 21 11 -3 3 7 6 22 7 5 7 4 12 3 -6 5 13 11 15 10 10 12 21 20 10 7 11 9 8 9 4 2 4 6 5 7
11 10 15 14 17 12 11 8 7 9 9 11 14 13 11 9 5 6 5 10 -2 4 5 4 -2 6 9 16 17 17 11 9 12 16 17 11 9 12 12 12 11 12 12 8 8 9 7
18 9 11 12 9 12 14 12 10 13 8 10 6 18 16 8 19 2 -4 -7 1 5 -3 7 2 -5 4 24 16 16 14 11 10 10 10 8 10 12 13 13 10 9 9 8 7 6 9
Height
5835 5835 5835 5834 5833 5832 5830 5829 5828 5826 5824 5822 5820 5818 5815 5812 5809 5804 5800 5794 5788 5779 5769 5757 5745 5731 5719 5713 5707 5698 5691 5688 5686 5683 5681 5679 5677 5675 5674 5673 5673 5675 5678 5682 5687 5694 5701
5834 5834 5833 5833 5832 5831 5830 5828 5827 5825 5823 5821 5819 5817 5814 5810 5807 5803 5798 5792 5785 5776 5766 5755 5743 5731 5719 5713 5707 5698 5692 5689 5686 5683 5680 5678 5675 5672 5670 5670 5671 5671 5672 5675 5680 5685 5693
5833 5833 5832 5832 5831 5829 5829 5827 5826 5823 5822 5820 5818 5815 5812 5808 5805 5802 5797 5790 5783 5775 5765 5754 5742 5731 5719 5715 5708 5701 5695 5691 5687 5683 5679 5675 5671 5668 5667 5667 5668 5668 5669 5671 5674 5678 5685
5831 5831 5830 5830 5830 5828 5827 5825 5824 5822 5820 5818 5816 5814 5810 5807 5803 5800 5795 5789 5782 5774 5764 5754 5742 5732 5721 5714 5709 5703 5697 5692 5688 5684 5680 5676 5672 5667 5665 5666 5667 5667 5668 5668 5669 5674 5679
5829 5829 5828 5828 5827 5826 5824 5823 5822 5820 5818 5816 5813 5812 5809 5805 5802 5798 5794 5788 5781 5773 5764 5754 5745 5733 5725 5715 5710 5705 5699 5694 5690 5685 5681 5677 5673 5667 5665 5666 5666 5665 5664 5665 5667 5670 5673
5827 5826 5826 5825 5825 5823 5822 5820 5819 5818 5815 5814 5811 5809 5807 5803 5800 5796 5792 5787 5780 5773 5764 5756 5746 5738 5727 5719 5711 5706 5701 5696 5691 5687 5683 5679 5675 5671 5668 5667 5666 5663 5663 5664 5664 5666 5670
5823 5824 5823 5823 5822 5821 5819 5818 5816 5815 5813 5811 5809 5807 5805 5802 5798 5795 5791 5786 5782 5774 5765 5757 5748 5738 5729 5721 5712 5706 5702 5698 5693 5688 5685 5682 5678 5674 5671 5669 5667 5665 5665 5664 5663 5664 5669
5820 5820 5820 5820 5819 5818 5817 5815 5814 5812 5811 5809 5807 5805 5802 5800 5797 5793 5789 5785 5780 5775 5766 5758 5749 5741 5733 5725 5716 5709 5704 5700 5695 5690 5686 5685 5681 5678 5674 5671 5669 5668 5667 5666 5667 5666 5669
5816 5817 5816 5817 5816 5816 5814 5813 5811 5810 5808 5807 5805 5802 5800 5798 5795 5792 5788 5784 5779 5773 5767 5759 5752 5744 5737 5729 5720 5713 5708 5703 5697 5691 5688 5686 5684 5680 5677 5674 5672 5669 5669 5669 5669 5670 5671
5811 5813 5813 5813 5813 5813 5812 5810 5809 5808 5806 5804 5803 5800 5797 5796 5794 5790 5787 5783 5778 5774 5768 5762 5754 5748 5740 5733 5726 5717 5711 5707 5701 5696 5692 5690 5686 5683 5680 5678 5676 5673 5672 5671 5671 5672 5673
5807 5807 5808 5809 5810 5809 5808 5808 5806 5805 5804 5802 5800 5798 5795 5793 5791 5788 5785 5781 5777 5773 5768 5763 5757 5751 5743 5737 5731 5723 5716 5710 5704 5700 5697 5694 5690 5687 5685 5683 5680 5679 5676 5676 5675 5675 5677
5802 5803 5803 5804 5805 5805 5804 5804 5804 5802 5801 5799 5797 5795 5793 5791 5789 5786 5783 5780 5777 5774 5767 5763 5758 5752 5747 5740 5734 5728 5722 5716 5710 5704 5700 5696 5692 5690 5688 5687 5685 5684 5682 5680 5678 5678 5680
5796 5797 5798 5798 5800 5800 5800 5799 5800 5799 5798 5796 5795 5793 5791 5789 5787 5784 5781 5779 5777 5771 5768 5764 5758 5753 5749 5743 5737 5732 5727 5720 5715 5712 5706 5702 5697 5693 5691 5689 5688 5686 5685 5683 5682 5680 5680
5788 5790 5791 5792 5793 5794 5795 5795 5795 5795 5795 5793 5792 5790 5789 5787 5784 5782 5780 5778 5775 5771 5767 5763 5759 5754 5750 5745 5740 5736 5731 5726 5720 5716 5711 5707 5703 5700 5697 5693 5691 5688 5687 5686 5685 5684 5683
5781 5782 5784 5785 5786 5787 5788 5789 5789 5790 5790 5790 5788 5787 5786 5784 5782 5779 5779 5776 5773 5770 5767 5763 5759 5755 5751 5746 5742 5738 5733 5729 5725 5720 5717 5712 5709 5705 5702 5698 5696 5693 5691 5690 5689 5688 5687
5774 5775 5776 5778 5779 5780 5781 5782 5782 5782 5783 5784 5784 5783 5782 5781 5780 5777 5775 5773 5770 5768 5765 5762 5759 5755 5751 5747 5743 5739 5736 5732 5727 5724 5720 5717 5713 5710 5708 5706 5703 5699 5697 5695 5692 5691 5690
5764 5766 5769 5770 5771 5772 5773 5775 5775 5775 5776 5777 5777 5778 5777 5777 5775 5774 5772 5770 5767 5765 5762 5760 5757 5754 5751 5747 5743 5740 5737 5734 5730 5726 5722 5719 5717 5715 5711 5709 5707 5705 5701 5698 5697 5695 5694
5752 5754 5757 5759 5762 5763 5765 5766 5766 5767 5769 5769 5770 5770 5771 5770 5771 5769 5768 5766 5764 5761 5759 5757 5754 5751 5749 5746 5743 5739 5736 5733 5731 5728 5725 5721 5718 5716 5714 5711 5709 5707 5705 5702 5700 5700 5697
5740 5743 5746 5748 5750 5753 5755 5756 5758 5758 5758 5760 5760 5762 5763 5763 5763 5762 5762 5760 5758 5758 5755 5754 5750 5747 5745 5743 5741 5738 5735 5732 5730 5727 5725 5723 5720 5717 5714 5713 5710 5708 5706 5705 5703 5702 5701
5727 5730 5733 5736 5739 5741 5742 5745 5746 5748 5749 5750 5751 5752 5756 5755 5755 5754 5754 5754 5752 5752 5751 5749 5746 5743 5741 5739 5736 5734 5732 5731 5728 5726 5723 5722 5719 5717 5715 5712 5710 5708 5707 5706 5704 5704 5703
5712 5715 5718 5721 5724 5728 5730 5732 5734 5736 5737 5740 5740 5742 5745 5746 5746 5746 5746 5747 5745 5743 5744 5742 5741 5739 5736 5734 5731 5729 5727 5726 5725 5723 5722 5720 5718 5716 5714 5712 5710 5708 5707 5705 5704 5703 5703
5697 5699 5702 5705 5708 5711 5716 5719 5720 5723 5725 5727 5729 5731 5733 5735 5736 5737 5736 5739 5737 5735 5735 5736 5733 5732 5729 5727 5725 5722 5721 5719 5719 5718 5716 5716 5715 5714 5712 5710 5709 5707 5705 5704 5703 5702 5701
5680 5683 5686 5689 5692 5694 5698 5701 5705 5708 5712 5714 5717 5719 5719 5722 5725 5726 5728 5727 5727 5727 5727 5726 5725 5724 5721 5719 5716 5715 5713 5712 5711 5711 5710 5710 5709 5709 5710 5707 5706 5706 5703 5702 5701 5700 5699
5660 5664 5668 5672 5675 5677 5679 5683 5687 5690 5695 5699 5702 5705 5705 5708 5713 5716 5716 5717 5716 5715 5716 5716 5715 5714 5712 5710 5708 5706 5705 5704 5702 5701 5702 5702 5702 5702 5703 5703 5702 5700 5699 5698 5697 5697 5696
5638 5643 5648 5652 5657 5660 5663 5666 5669 5673 5678 5681 5685 5688 5690 5692 5699 5703 5705 5704 5704 5705 5704 5704 5705 5705 5702 5701 5698 5697 5697 5695 5694 5693 5694 5694 5693 5694 5694 5695 5696 5693 5691 5692 5691 5692 5691
5618 5621 5626 5634 5637 5642 5645 5649 5651 5656 5660 5664 5669 5671 5674 5678 5683 5690 5691 5692 5693 5692 5692 5694 5694 5693 5692 5690 5688 5685 5687 5685 5684 5683 5684 5684 5684 5685 5686 5687 5686 5685 5682 5681 5684 5682 5681
5599 5602 5606 5611 5616 5622 5626 5631 5634 5637 5642 5647 5652 5655 5657 5661 5667 5673 5676 5678 5680 5681 5680 5682 5681 5682 5682 5679 5677 5677 5677 5676 5674 5673 5674 5673 5674 5676 5676 5677 5677 5675 5675 5676 5676 5678 5675
5577 5583 5587 5590 5596 5603 5606 5611 5615 5619 5623 5628 5636 5639 5642 5646 5651 5656 5660 5664 5666 5667 5668 5669 5670 5672 5669 5667 5666 5666 5665 5666 5664 5664 5664 5665 5665 5666 5666 5666 5667 5666 5666 5667 5664 5664 5664
5555 5561 5567 5572 5576 5582 5586 5590 5594 5600 5606 5610 5617 5622 5624 5627 5636 5640 5645 5648 5651 5653 5655 5654 5657 5657 5657 5656 5656 5654 5655 5655 5655 5655 5655 5656 5656 5656 5657 5656 5655 5654 5653 5652 5653 5653 5653